owner,sensor,date,latitude,longitude,relative_humidity,qcFlag 
DISL,ioos:station:DISL:PPTA:1,2013-10-01T00:00:00Z,30.2791,-87.5561,60.65,1111122 
DISL,ioos:station:DISL:PPTA:1,2013-10-01T00:30:00Z,30.2791,-87.5561,61.4,1111122 
DISL,ioos:station:DISL:PPTA:1,2013-10-01T01:00:00Z,30.2791,-87.5561,64.37,1111122 
DISL,ioos:station:DISL:PPTA:1,2013-10-01T01:30:00Z,30.2791,-87.5561,68.74,1111122 
DISL,ioos:station:DISL:PPTA:1,2013-10-01T02:00:00Z,30.2791,-87.5561,70.06,1111122 
DISL,ioos:station:DISL:PPTA:1,2013-10-01T02:30:00Z,30.2791,-87.5561,68.63,1111122 
DISL,ioos:station:DISL:PPTA:1,2013-10-01T03:00:00Z,30.2791,-87.5561,68.94,1111122 
DISL,ioos:station:DISL:PPTA:1,2013-10-01T03:30:00Z,30.2791,-87.5561,68.43,1111122 
DISL,ioos:station:DISL:PPTA:1,2013-10-01T04:00:00Z,30.2791,-87.5561,72.96,1111122 
DISL,ioos:station:DISL:PPTA:1,2013-10-01T04:30:00Z,30.2791,-87.5561,78.05,1111122 
DISL,ioos:station:DISL:PPTA:1,2013-10-01T05:00:00Z,30.2791,-87.5561,79.76,1111122 
DISL,ioos:station:DISL:PPTA:1,2013-10-01T05:30:00Z,30.2791,-87.5561,76.9,1111122 
DISL,ioos:station:DISL:PPTA:1,2013-10-01T06:00:00Z,30.2791,-87.5561,66.46,1111122 
DISL,ioos:station:DISL:PPTA:1,2013-10-01T06:30:00Z,30.2791,-87.5561,69.25,1111122 
DISL,ioos:station:DISL:PPTA:1,2013-10-01T07:00:00Z,30.2791,-87.5561,69.59,1111122 
DISL,ioos:station:DISL:PPTA:1,2013-10-01T07:30:00Z,30.2791,-87.5561,68.16,1111122 
DISL,ioos:station:DISL:PPTA:1,2013-10-01T08:00:00Z,30.2791,-87.5561,67.88,1111122 
DISL,ioos:station:DISL:PPTA:1,2013-10-01T08:30:00Z,30.2791,-87.5561,73.37,1111122 
DISL,ioos:station:DISL:PPTA:1,2013-10-01T09:00:00Z,30.2791,-87.5561,76.34,1111122 
DISL,ioos:station:DISL:PPTA:1,2013-10-01T09:30:00Z,30.2791,-87.5561,85.1,1111122 
DISL,ioos:station:DISL:PPTA:1,2013-10-01T10:00:00Z,30.2791,-87.5561,89.3,1111122 
DISL,ioos:station:DISL:PPTA:1,2013-10-01T10:30:00Z,30.2791,-87.5561,90.8,1111122 
DISL,ioos:station:DISL:PPTA:1,2013-10-01T11:00:00Z,30.2791,-87.5561,91.3,1111122 
DISL,ioos:station:DISL:PPTA:1,2013-10-01T11:30:00Z,30.2791,-87.5561,91.5,1111122 
DISL,ioos:station:DISL:PPTA:1,2013-10-01T12:00:00Z,30.2791,-87.5561,91.5,1111122 
DISL,ioos:station:DISL:PPTA:1,2013-10-01T12:30:00Z,30.2791,-87.5561,90.8,1111122 
DISL,ioos:station:DISL:PPTA:1,2013-10-01T13:00:00Z,30.2791,-87.5561,88.4,1111122 
DISL,ioos:station:DISL:PPTA:1,2013-10-01T13:30:00Z,30.2791,-87.5561,85.8,1111122 
DISL,ioos:station:DISL:PPTA:1,2013-10-01T14:00:00Z,30.2791,-87.5561,84.9,1111122 
DISL,ioos:station:DISL:PPTA:1,2013-10-01T14:30:00Z,30.2791,-87.5561,79.78,1111122 
DISL,ioos:station:DISL:PPTA:1,2013-10-01T15:00:00Z,30.2791,-87.5561,76.86,1111122 
DISL,ioos:station:DISL:PPTA:1,2013-10-01T15:30:00Z,30.2791,-87.5561,72.53,1111122 
DISL,ioos:station:DISL:PPTA:1,2013-10-01T16:00:00Z,30.2791,-87.5561,68.5,1111122 
DISL,ioos:station:DISL:PPTA:1,2013-10-01T16:30:00Z,30.2791,-87.5561,75.78,1111122 
DISL,ioos:station:DISL:PPTA:1,2013-10-01T17:00:00Z,30.2791,-87.5561,75.78,1111122 
DISL,ioos:station:DISL:PPTA:1,2013-10-01T17:30:00Z,30.2791,-87.5561,74.96,1111122 
DISL,ioos:station:DISL:PPTA:1,2013-10-01T18:00:00Z,30.2791,-87.5561,74.31,1111122 
DISL,ioos:station:DISL:PPTA:1,2013-10-01T18:30:00Z,30.2791,-87.5561,75.3,1111122 
DISL,ioos:station:DISL:PPTA:1,2013-10-01T19:00:00Z,30.2791,-87.5561,71.84,1111122 
DISL,ioos:station:DISL:PPTA:1,2013-10-01T19:30:00Z,30.2791,-87.5561,69.36,1111122 
DISL,ioos:station:DISL:PPTA:1,2013-10-01T20:00:00Z,30.2791,-87.5561,69.84,1111122 
DISL,ioos:station:DISL:PPTA:1,2013-10-01T20:30:00Z,30.2791,-87.5561,68.81,1111122 
DISL,ioos:station:DISL:PPTA:1,2013-10-01T21:00:00Z,30.2791,-87.5561,71.34,1111122 
DISL,ioos:station:DISL:PPTA:1,2013-10-01T21:30:00Z,30.2791,-87.5561,69.36,1111122 
DISL,ioos:station:DISL:PPTA:1,2013-10-01T22:00:00Z,30.2791,-87.5561,69.5,1111122 
DISL,ioos:station:DISL:PPTA:1,2013-10-01T22:30:00Z,30.2791,-87.5561,70.07,1111122 
DISL,ioos:station:DISL:PPTA:1,2013-10-01T23:00:00Z,30.2791,-87.5561,69.36,1111122 
DISL,ioos:station:DISL:PPTA:1,2013-10-01T23:30:00Z,30.2791,-87.5561,69.2,1111122 
DISL,ioos:station:DISL:PPTA:1,2013-10-02T00:00:00Z,30.2791,-87.5561,69.48,1111122 
DISL,ioos:station:DISL:PPTA:1,2013-10-02T00:30:00Z,30.2791,-87.5561,71.09,1111122 
DISL,ioos:station:DISL:PPTA:1,2013-10-02T01:00:00Z,30.2791,-87.5561,73.58,1111122 
DISL,ioos:station:DISL:PPTA:1,2013-10-02T01:30:00Z,30.2791,-87.5561,73.64,1111122 
DISL,ioos:station:DISL:PPTA:1,2013-10-02T02:00:00Z,30.2791,-87.5561,73.95,1111122 
DISL,ioos:station:DISL:PPTA:1,2013-10-02T02:30:00Z,30.2791,-87.5561,74.8,1111122 
DISL,ioos:station:DISL:PPTA:1,2013-10-02T03:00:00Z,30.2791,-87.5561,72.96,1111122 
DISL,ioos:station:DISL:PPTA:1,2013-10-02T03:30:00Z,30.2791,-87.5561,73.47,1111122 
DISL,ioos:station:DISL:PPTA:1,2013-10-02T04:00:00Z,30.2791,-87.5561,74.6,1111122 
DISL,ioos:station:DISL:PPTA:1,2013-10-02T04:30:00Z,30.2791,-87.5561,75.28,1111122 
DISL,ioos:station:DISL:PPTA:1,2013-10-02T05:00:00Z,30.2791,-87.5561,75.66,1111122 
DISL,ioos:station:DISL:PPTA:1,2013-10-02T05:30:00Z,30.2791,-87.5561,78.83,1111122 
DISL,ioos:station:DISL:PPTA:1,2013-10-02T06:00:00Z,30.2791,-87.5561,83.1,1111122 
DISL,ioos:station:DISL:PPTA:1,2013-10-02T06:30:00Z,30.2791,-87.5561,84.3,1111122 
DISL,ioos:station:DISL:PPTA:1,2013-10-02T07:00:00Z,30.2791,-87.5561,83.7,1111122 
DISL,ioos:station:DISL:PPTA:1,2013-10-02T07:30:00Z,30.2791,-87.5561,83.3,1111122 
DISL,ioos:station:DISL:PPTA:1,2013-10-02T08:00:00Z,30.2791,-87.5561,83.8,1111122 
DISL,ioos:station:DISL:PPTA:1,2013-10-02T08:30:00Z,30.2791,-87.5561,87.3,1111122 
DISL,ioos:station:DISL:PPTA:1,2013-10-02T09:00:00Z,30.2791,-87.5561,77.51,1111122 
DISL,ioos:station:DISL:PPTA:1,2013-10-02T09:30:00Z,30.2791,-87.5561,77.91,1111122 
DISL,ioos:station:DISL:PPTA:1,2013-10-02T10:00:00Z,30.2791,-87.5561,76.03,1111122 
DISL,ioos:station:DISL:PPTA:1,2013-10-02T10:30:00Z,30.2791,-87.5561,76.07,1111122 
DISL,ioos:station:DISL:PPTA:1,2013-10-02T11:00:00Z,30.2791,-87.5561,83.6,1111122 
DISL,ioos:station:DISL:PPTA:1,2013-10-02T11:30:00Z,30.2791,-87.5561,86.6,1111122 
DISL,ioos:station:DISL:PPTA:1,2013-10-02T12:00:00Z,30.2791,-87.5561,87.7,1111122 
DISL,ioos:station:DISL:PPTA:1,2013-10-02T12:30:00Z,30.2791,-87.5561,87.2,1111122 
DISL,ioos:station:DISL:PPTA:1,2013-10-02T13:00:00Z,30.2791,-87.5561,87.1,1111122 
DISL,ioos:station:DISL:PPTA:1,2013-10-02T13:30:00Z,30.2791,-87.5561,88.1,1111122 
DISL,ioos:station:DISL:PPTA:1,2013-10-02T14:00:00Z,30.2791,-87.5561,87.6,1111122 
DISL,ioos:station:DISL:PPTA:1,2013-10-02T14:30:00Z,30.2791,-87.5561,86.4,1111122 
DISL,ioos:station:DISL:PPTA:1,2013-10-02T15:00:00Z,30.2791,-87.5561,87.7,1111122 
DISL,ioos:station:DISL:PPTA:1,2013-10-02T15:30:00Z,30.2791,-87.5561,89.5,1111122 
DISL,ioos:station:DISL:PPTA:1,2013-10-02T16:00:00Z,30.2791,-87.5561,91.2,1111122 
DISL,ioos:station:DISL:PPTA:1,2013-10-02T16:30:00Z,30.2791,-87.5561,92.4,1111122 
DISL,ioos:station:DISL:PPTA:1,2013-10-02T17:00:00Z,30.2791,-87.5561,92.7,1111122 
DISL,ioos:station:DISL:PPTA:1,2013-10-02T17:30:00Z,30.2791,-87.5561,92.9,1111122 
DISL,ioos:station:DISL:PPTA:1,2013-10-02T18:00:00Z,30.2791,-87.5561,92.1,1111122 
DISL,ioos:station:DISL:PPTA:1,2013-10-02T18:30:00Z,30.2791,-87.5561,90.6,1111122 
DISL,ioos:station:DISL:PPTA:1,2013-10-02T19:00:00Z,30.2791,-87.5561,87.2,1111122 
DISL,ioos:station:DISL:PPTA:1,2013-10-02T19:30:00Z,30.2791,-87.5561,83.2,1111122 
DISL,ioos:station:DISL:PPTA:1,2013-10-02T20:00:00Z,30.2791,-87.5561,81.4,1111122 
DISL,ioos:station:DISL:PPTA:1,2013-10-02T20:30:00Z,30.2791,-87.5561,79.0,1111122 
DISL,ioos:station:DISL:PPTA:1,2013-10-02T21:00:00Z,30.2791,-87.5561,80.2,1111122 
DISL,ioos:station:DISL:PPTA:1,2013-10-02T21:30:00Z,30.2791,-87.5561,73.37,1111122 
DISL,ioos:station:DISL:PPTA:1,2013-10-02T22:00:00Z,30.2791,-87.5561,78.01,1111122 
DISL,ioos:station:DISL:PPTA:1,2013-10-02T22:30:00Z,30.2791,-87.5561,76.3,1111122 
DISL,ioos:station:DISL:PPTA:1,2013-10-02T23:00:00Z,30.2791,-87.5561,77.33,1111122 
DISL,ioos:station:DISL:PPTA:1,2013-10-02T23:30:00Z,30.2791,-87.5561,78.42,1111122 
DISL,ioos:station:DISL:PPTA:1,2013-10-03T00:00:00Z,30.2791,-87.5561,81.1,1111122 
DISL,ioos:station:DISL:PPTA:1,2013-10-03T00:30:00Z,30.2791,-87.5561,84.2,1111122 
DISL,ioos:station:DISL:PPTA:1,2013-10-03T01:00:00Z,30.2791,-87.5561,81.6,1111122 
DISL,ioos:station:DISL:PPTA:1,2013-10-03T01:30:00Z,30.2791,-87.5561,82.4,1111122 
DISL,ioos:station:DISL:PPTA:1,2013-10-03T02:00:00Z,30.2791,-87.5561,88.0,1111122 
DISL,ioos:station:DISL:PPTA:1,2013-10-03T02:30:00Z,30.2791,-87.5561,89.9,1111122 
DISL,ioos:station:DISL:PPTA:1,2013-10-03T03:00:00Z,30.2791,-87.5561,88.8,1111122 
DISL,ioos:station:DISL:PPTA:1,2013-10-03T03:30:00Z,30.2791,-87.5561,82.9,1111122 
DISL,ioos:station:DISL:PPTA:1,2013-10-03T04:00:00Z,30.2791,-87.5561,81.7,1111122 
DISL,ioos:station:DISL:PPTA:1,2013-10-03T04:30:00Z,30.2791,-87.5561,79.99,1111122 
DISL,ioos:station:DISL:PPTA:1,2013-10-03T05:00:00Z,30.2791,-87.5561,79.88,1111122 
DISL,ioos:station:DISL:PPTA:1,2013-10-03T05:30:00Z,30.2791,-87.5561,80.5,1111122 
DISL,ioos:station:DISL:PPTA:1,2013-10-03T06:00:00Z,30.2791,-87.5561,77.91,1111122 
DISL,ioos:station:DISL:PPTA:1,2013-10-03T06:30:00Z,30.2791,-87.5561,76.1,1111122 
DISL,ioos:station:DISL:PPTA:1,2013-10-03T07:00:00Z,30.2791,-87.5561,74.36,1111122 
DISL,ioos:station:DISL:PPTA:1,2013-10-03T07:30:00Z,30.2791,-87.5561,74.09,1111122 
DISL,ioos:station:DISL:PPTA:1,2013-10-03T08:00:00Z,30.2791,-87.5561,72.93,1111122 
DISL,ioos:station:DISL:PPTA:1,2013-10-03T08:30:00Z,30.2791,-87.5561,72.18,1111122 
DISL,ioos:station:DISL:PPTA:1,2013-10-03T09:00:00Z,30.2791,-87.5561,70.85,1111122 
DISL,ioos:station:DISL:PPTA:1,2013-10-03T09:30:00Z,30.2791,-87.5561,70.27,1111122 
DISL,ioos:station:DISL:PPTA:1,2013-10-03T10:00:00Z,30.2791,-87.5561,74.09,1111122 
DISL,ioos:station:DISL:PPTA:1,2013-10-03T10:30:00Z,30.2791,-87.5561,83.5,1111122 
DISL,ioos:station:DISL:PPTA:1,2013-10-03T11:00:00Z,30.2791,-87.5561,87.1,1111122 
DISL,ioos:station:DISL:PPTA:1,2013-10-03T11:30:00Z,30.2791,-87.5561,88.4,1111122 
DISL,ioos:station:DISL:PPTA:1,2013-10-03T12:00:00Z,30.2791,-87.5561,88.0,1111122 
DISL,ioos:station:DISL:PPTA:1,2013-10-03T12:30:00Z,30.2791,-87.5561,87.2,1111122 
DISL,ioos:station:DISL:PPTA:1,2013-10-03T13:00:00Z,30.2791,-87.5561,85.8,1111122 
DISL,ioos:station:DISL:PPTA:1,2013-10-03T13:30:00Z,30.2791,-87.5561,85.1,1111122 
DISL,ioos:station:DISL:PPTA:1,2013-10-03T14:00:00Z,30.2791,-87.5561,84.6,1111122 
DISL,ioos:station:DISL:PPTA:1,2013-10-03T14:30:00Z,30.2791,-87.5561,84.3,1111122 
DISL,ioos:station:DISL:PPTA:1,2013-10-03T15:00:00Z,30.2791,-87.5561,83.4,1111122 
DISL,ioos:station:DISL:PPTA:1,2013-10-03T15:30:00Z,30.2791,-87.5561,78.84,1111122 
DISL,ioos:station:DISL:PPTA:1,2013-10-03T16:00:00Z,30.2791,-87.5561,75.8,1111122 
DISL,ioos:station:DISL:PPTA:1,2013-10-03T16:30:00Z,30.2791,-87.5561,75.61,1111122 
DISL,ioos:station:DISL:PPTA:1,2013-10-03T17:00:00Z,30.2791,-87.5561,77.99,1111122 
DISL,ioos:station:DISL:PPTA:1,2013-10-03T17:30:00Z,30.2791,-87.5561,78.81,1111122 
DISL,ioos:station:DISL:PPTA:1,2013-10-03T18:00:00Z,30.2791,-87.5561,77.85,1111122 
DISL,ioos:station:DISL:PPTA:1,2013-10-03T18:30:00Z,30.2791,-87.5561,77.69,1111122 
DISL,ioos:station:DISL:PPTA:1,2013-10-03T19:00:00Z,30.2791,-87.5561,77.35,1111122 
DISL,ioos:station:DISL:PPTA:1,2013-10-03T19:30:00Z,30.2791,-87.5561,78.21,1111122 
DISL,ioos:station:DISL:PPTA:1,2013-10-03T20:00:00Z,30.2791,-87.5561,79.11,1111122 
DISL,ioos:station:DISL:PPTA:1,2013-10-03T20:30:00Z,30.2791,-87.5561,79.41,1111122 
DISL,ioos:station:DISL:PPTA:1,2013-10-03T21:00:00Z,30.2791,-87.5561,79.96,1111122 
DISL,ioos:station:DISL:PPTA:1,2013-10-03T21:30:00Z,30.2791,-87.5561,78.49,1111122 
DISL,ioos:station:DISL:PPTA:1,2013-10-03T22:00:00Z,30.2791,-87.5561,81.2,1111122 
DISL,ioos:station:DISL:PPTA:1,2013-10-03T22:30:00Z,30.2791,-87.5561,80.5,1111122 
DISL,ioos:station:DISL:PPTA:1,2013-10-03T23:00:00Z,30.2791,-87.5561,79.64,1111122 
DISL,ioos:station:DISL:PPTA:1,2013-10-03T23:30:00Z,30.2791,-87.5561,80.5,1111122 
DISL,ioos:station:DISL:PPTA:1,2013-10-04T00:00:00Z,30.2791,-87.5561,80.6,1111122 
DISL,ioos:station:DISL:PPTA:1,2013-10-04T00:30:00Z,30.2791,-87.5561,75.62,1111122 
DISL,ioos:station:DISL:PPTA:1,2013-10-04T01:00:00Z,30.2791,-87.5561,77.63,1111122 
DISL,ioos:station:DISL:PPTA:1,2013-10-04T01:30:00Z,30.2791,-87.5561,79.75,1111122 
DISL,ioos:station:DISL:PPTA:1,2013-10-04T02:00:00Z,30.2791,-87.5561,76.41,1111122 
DISL,ioos:station:DISL:PPTA:1,2013-10-04T02:30:00Z,30.2791,-87.5561,76.44,1111122 
DISL,ioos:station:DISL:PPTA:1,2013-10-04T03:00:00Z,30.2791,-87.5561,78.35,1111122 
DISL,ioos:station:DISL:PPTA:1,2013-10-04T03:30:00Z,30.2791,-87.5561,80.2,1111122 
DISL,ioos:station:DISL:PPTA:1,2013-10-04T04:00:00Z,30.2791,-87.5561,82.5,1111122 
DISL,ioos:station:DISL:PPTA:1,2013-10-04T04:30:00Z,30.2791,-87.5561,87.1,1111122 
DISL,ioos:station:DISL:PPTA:1,2013-10-04T05:00:00Z,30.2791,-87.5561,87.1,1111122 
DISL,ioos:station:DISL:PPTA:1,2013-10-04T05:30:00Z,30.2791,-87.5561,85.7,1111122 
DISL,ioos:station:DISL:PPTA:1,2013-10-04T06:00:00Z,30.2791,-87.5561,86.8,1111122 
DISL,ioos:station:DISL:PPTA:1,2013-10-04T06:30:00Z,30.2791,-87.5561,87.3,1111122 
DISL,ioos:station:DISL:PPTA:1,2013-10-04T07:00:00Z,30.2791,-87.5561,86.7,1111122 
DISL,ioos:station:DISL:PPTA:1,2013-10-04T07:30:00Z,30.2791,-87.5561,84.6,1111122 
DISL,ioos:station:DISL:PPTA:1,2013-10-04T08:00:00Z,30.2791,-87.5561,84.6,1111122 
DISL,ioos:station:DISL:PPTA:1,2013-10-04T08:30:00Z,30.2791,-87.5561,89.6,1111122 
DISL,ioos:station:DISL:PPTA:1,2013-10-04T09:00:00Z,30.2791,-87.5561,83.2,1111122 
DISL,ioos:station:DISL:PPTA:1,2013-10-04T09:30:00Z,30.2791,-87.5561,82.7,1111122 
DISL,ioos:station:DISL:PPTA:1,2013-10-04T10:00:00Z,30.2791,-87.5561,81.8,1111122 
DISL,ioos:station:DISL:PPTA:1,2013-10-04T10:30:00Z,30.2791,-87.5561,82.6,1111122 
DISL,ioos:station:DISL:PPTA:1,2013-10-04T11:00:00Z,30.2791,-87.5561,83.8,1111122 
DISL,ioos:station:DISL:PPTA:1,2013-10-04T11:30:00Z,30.2791,-87.5561,84.7,1111122 
DISL,ioos:station:DISL:PPTA:1,2013-10-04T12:00:00Z,30.2791,-87.5561,86.1,1111122 
DISL,ioos:station:DISL:PPTA:1,2013-10-04T12:30:00Z,30.2791,-87.5561,87.7,1111122 
DISL,ioos:station:DISL:PPTA:1,2013-10-04T13:00:00Z,30.2791,-87.5561,80.7,1111122 
DISL,ioos:station:DISL:PPTA:1,2013-10-04T13:30:00Z,30.2791,-87.5561,77.8,1111122 
DISL,ioos:station:DISL:PPTA:1,2013-10-04T14:00:00Z,30.2791,-87.5561,81.5,1111122 
DISL,ioos:station:DISL:PPTA:1,2013-10-04T14:30:00Z,30.2791,-87.5561,80.2,1111122 
DISL,ioos:station:DISL:PPTA:1,2013-10-04T15:00:00Z,30.2791,-87.5561,76.96,1111122 
DISL,ioos:station:DISL:PPTA:1,2013-10-04T15:30:00Z,30.2791,-87.5561,79.79,1111122 
DISL,ioos:station:DISL:PPTA:1,2013-10-04T16:00:00Z,30.2791,-87.5561,71.23,1111122 
DISL,ioos:station:DISL:PPTA:1,2013-10-04T16:30:00Z,30.2791,-87.5561,74.41,1111122 
DISL,ioos:station:DISL:PPTA:1,2013-10-04T17:00:00Z,30.2791,-87.5561,71.71,1111122 
DISL,ioos:station:DISL:PPTA:1,2013-10-04T17:30:00Z,30.2791,-87.5561,68.56,1111122 
DISL,ioos:station:DISL:PPTA:1,2013-10-04T18:00:00Z,30.2791,-87.5561,66.25,1111122 
DISL,ioos:station:DISL:PPTA:1,2013-10-04T18:30:00Z,30.2791,-87.5561,66.62,1111122 
DISL,ioos:station:DISL:PPTA:1,2013-10-04T19:00:00Z,30.2791,-87.5561,69.48,1111122 
DISL,ioos:station:DISL:PPTA:1,2013-10-04T19:30:00Z,30.2791,-87.5561,73.07,1111122 
DISL,ioos:station:DISL:PPTA:1,2013-10-04T20:00:00Z,30.2791,-87.5561,72.67,1111122 
DISL,ioos:station:DISL:PPTA:1,2013-10-04T20:30:00Z,30.2791,-87.5561,73.42,1111122 
DISL,ioos:station:DISL:PPTA:1,2013-10-04T21:00:00Z,30.2791,-87.5561,73.76,1111122 
DISL,ioos:station:DISL:PPTA:1,2013-10-04T21:30:00Z,30.2791,-87.5561,75.54,1111122 
DISL,ioos:station:DISL:PPTA:1,2013-10-04T22:00:00Z,30.2791,-87.5561,75.28,1111122 
DISL,ioos:station:DISL:PPTA:1,2013-10-04T22:30:00Z,30.2791,-87.5561,74.95,1111122 
DISL,ioos:station:DISL:PPTA:1,2013-10-04T23:00:00Z,30.2791,-87.5561,75.22,1111122 
DISL,ioos:station:DISL:PPTA:1,2013-10-04T23:30:00Z,30.2791,-87.5561,77.16,1111122 
DISL,ioos:station:DISL:PPTA:1,2013-10-05T00:00:00Z,30.2791,-87.5561,78.29,1111122 
DISL,ioos:station:DISL:PPTA:1,2013-10-05T00:30:00Z,30.2791,-87.5561,79.82,1111122 
DISL,ioos:station:DISL:PPTA:1,2013-10-05T01:00:00Z,30.2791,-87.5561,80.4,1111122 
DISL,ioos:station:DISL:PPTA:1,2013-10-05T01:30:00Z,30.2791,-87.5561,78.6,1111122 
DISL,ioos:station:DISL:PPTA:1,2013-10-05T02:00:00Z,30.2791,-87.5561,80.8,1111122 
DISL,ioos:station:DISL:PPTA:1,2013-10-05T02:30:00Z,30.2791,-87.5561,81.0,1111122 
DISL,ioos:station:DISL:PPTA:1,2013-10-05T03:00:00Z,30.2791,-87.5561,82.0,1111122 
DISL,ioos:station:DISL:PPTA:1,2013-10-05T03:30:00Z,30.2791,-87.5561,80.2,1111122 
DISL,ioos:station:DISL:PPTA:1,2013-10-05T04:00:00Z,30.2791,-87.5561,81.3,1111122 
DISL,ioos:station:DISL:PPTA:1,2013-10-05T04:30:00Z,30.2791,-87.5561,79.36,1111122 
DISL,ioos:station:DISL:PPTA:1,2013-10-05T05:00:00Z,30.2791,-87.5561,79.47,1111122 
DISL,ioos:station:DISL:PPTA:1,2013-10-05T05:30:00Z,30.2791,-87.5561,79.91,1111122 
DISL,ioos:station:DISL:PPTA:1,2013-10-05T06:00:00Z,30.2791,-87.5561,80.4,1111122 
DISL,ioos:station:DISL:PPTA:1,2013-10-05T06:30:00Z,30.2791,-87.5561,78.86,1111122 
DISL,ioos:station:DISL:PPTA:1,2013-10-05T07:00:00Z,30.2791,-87.5561,76.1,1111122 
DISL,ioos:station:DISL:PPTA:1,2013-10-05T07:30:00Z,30.2791,-87.5561,78.55,1111122 
DISL,ioos:station:DISL:PPTA:1,2013-10-05T08:00:00Z,30.2791,-87.5561,80.3,1111122 
DISL,ioos:station:DISL:PPTA:1,2013-10-05T08:30:00Z,30.2791,-87.5561,79.85,1111122 
DISL,ioos:station:DISL:PPTA:1,2013-10-05T09:00:00Z,30.2791,-87.5561,79.71,1111122 
DISL,ioos:station:DISL:PPTA:1,2013-10-05T09:30:00Z,30.2791,-87.5561,78.83,1111122 
DISL,ioos:station:DISL:PPTA:1,2013-10-05T10:00:00Z,30.2791,-87.5561,79.78,1111122 
DISL,ioos:station:DISL:PPTA:1,2013-10-05T10:30:00Z,30.2791,-87.5561,77.57,1111122 
DISL,ioos:station:DISL:PPTA:1,2013-10-05T11:00:00Z,30.2791,-87.5561,76.78,1111122 
DISL,ioos:station:DISL:PPTA:1,2013-10-05T11:30:00Z,30.2791,-87.5561,77.87,1111122 
DISL,ioos:station:DISL:PPTA:1,2013-10-05T12:00:00Z,30.2791,-87.5561,77.6,1111122 
DISL,ioos:station:DISL:PPTA:1,2013-10-05T12:30:00Z,30.2791,-87.5561,81.2,1111122 
DISL,ioos:station:DISL:PPTA:1,2013-10-05T13:00:00Z,30.2791,-87.5561,80.8,1111122 
DISL,ioos:station:DISL:PPTA:1,2013-10-05T13:30:00Z,30.2791,-87.5561,83.2,1111122 
DISL,ioos:station:DISL:PPTA:1,2013-10-05T14:00:00Z,30.2791,-87.5561,84.7,1111122 
DISL,ioos:station:DISL:PPTA:1,2013-10-05T14:30:00Z,30.2791,-87.5561,81.8,1111122 
DISL,ioos:station:DISL:PPTA:1,2013-10-05T15:00:00Z,30.2791,-87.5561,81.9,1111122 
DISL,ioos:station:DISL:PPTA:1,2013-10-05T15:30:00Z,30.2791,-87.5561,77.51,1111122 
DISL,ioos:station:DISL:PPTA:1,2013-10-05T16:00:00Z,30.2791,-87.5561,71.25,1111122 
DISL,ioos:station:DISL:PPTA:1,2013-10-05T16:30:00Z,30.2791,-87.5561,69.95,1111122 
DISL,ioos:station:DISL:PPTA:1,2013-10-05T17:00:00Z,30.2791,-87.5561,69.45,1111122 
DISL,ioos:station:DISL:PPTA:1,2013-10-05T17:30:00Z,30.2791,-87.5561,70.1,1111122 
DISL,ioos:station:DISL:PPTA:1,2013-10-05T18:00:00Z,30.2791,-87.5561,72.58,1111122 
DISL,ioos:station:DISL:PPTA:1,2013-10-05T18:30:00Z,30.2791,-87.5561,73.54,1111122 
DISL,ioos:station:DISL:PPTA:1,2013-10-05T19:00:00Z,30.2791,-87.5561,73.23,1111122 
DISL,ioos:station:DISL:PPTA:1,2013-10-05T19:30:00Z,30.2791,-87.5561,74.1,1111122 
DISL,ioos:station:DISL:PPTA:1,2013-10-05T20:00:00Z,30.2791,-87.5561,70.94,1111122 
DISL,ioos:station:DISL:PPTA:1,2013-10-05T20:30:00Z,30.2791,-87.5561,68.25,1111122 
DISL,ioos:station:DISL:PPTA:1,2013-10-05T21:00:00Z,30.2791,-87.5561,69.27,1111122 
DISL,ioos:station:DISL:PPTA:1,2013-10-05T21:30:00Z,30.2791,-87.5561,70.49,1111122 
DISL,ioos:station:DISL:PPTA:1,2013-10-05T22:00:00Z,30.2791,-87.5561,70.68,1111122 
DISL,ioos:station:DISL:PPTA:1,2013-10-05T22:30:00Z,30.2791,-87.5561,72.12,1111122 
DISL,ioos:station:DISL:PPTA:1,2013-10-05T23:00:00Z,30.2791,-87.5561,73.59,1111122 
DISL,ioos:station:DISL:PPTA:1,2013-10-05T23:30:00Z,30.2791,-87.5561,73.07,1111122 
DISL,ioos:station:DISL:PPTA:1,2013-10-06T00:00:00Z,30.2791,-87.5561,73.48,1111122 
DISL,ioos:station:DISL:PPTA:1,2013-10-06T00:30:00Z,30.2791,-87.5561,74.3,1111122 
DISL,ioos:station:DISL:PPTA:1,2013-10-06T01:00:00Z,30.2791,-87.5561,73.38,1111122 
DISL,ioos:station:DISL:PPTA:1,2013-10-06T01:30:00Z,30.2791,-87.5561,82.8,1111122 
DISL,ioos:station:DISL:PPTA:1,2013-10-06T02:00:00Z,30.2791,-87.5561,78.93,1111122 
DISL,ioos:station:DISL:PPTA:1,2013-10-06T02:30:00Z,30.2791,-87.5561,79.2,1111122 
DISL,ioos:station:DISL:PPTA:1,2013-10-06T03:00:00Z,30.2791,-87.5561,76.78,1111122 
DISL,ioos:station:DISL:PPTA:1,2013-10-06T03:30:00Z,30.2791,-87.5561,73.95,1111122 
DISL,ioos:station:DISL:PPTA:1,2013-10-06T04:00:00Z,30.2791,-87.5561,76.38,1111122 
DISL,ioos:station:DISL:PPTA:1,2013-10-06T04:30:00Z,30.2791,-87.5561,78.8,1111122 
DISL,ioos:station:DISL:PPTA:1,2013-10-06T05:00:00Z,30.2791,-87.5561,74.09,1111122 
DISL,ioos:station:DISL:PPTA:1,2013-10-06T05:30:00Z,30.2791,-87.5561,76.61,1111122 
DISL,ioos:station:DISL:PPTA:1,2013-10-06T06:00:00Z,30.2791,-87.5561,75.66,1111122 
DISL,ioos:station:DISL:PPTA:1,2013-10-06T06:30:00Z,30.2791,-87.5561,75.52,1111122 
DISL,ioos:station:DISL:PPTA:1,2013-10-06T07:00:00Z,30.2791,-87.5561,79.61,1111122 
DISL,ioos:station:DISL:PPTA:1,2013-10-06T07:30:00Z,30.2791,-87.5561,82.0,1111122 
DISL,ioos:station:DISL:PPTA:1,2013-10-06T08:00:00Z,30.2791,-87.5561,78.34,1111122 
DISL,ioos:station:DISL:PPTA:1,2013-10-06T08:30:00Z,30.2791,-87.5561,74.3,1111122 
DISL,ioos:station:DISL:PPTA:1,2013-10-06T09:00:00Z,30.2791,-87.5561,73.85,1111122 
DISL,ioos:station:DISL:PPTA:1,2013-10-06T09:30:00Z,30.2791,-87.5561,76.24,1111122 
DISL,ioos:station:DISL:PPTA:1,2013-10-06T10:00:00Z,30.2791,-87.5561,78.76,1111122 
DISL,ioos:station:DISL:PPTA:1,2013-10-06T10:30:00Z,30.2791,-87.5561,76.99,1111122 
DISL,ioos:station:DISL:PPTA:1,2013-10-06T11:00:00Z,30.2791,-87.5561,79.68,1111122 
DISL,ioos:station:DISL:PPTA:1,2013-10-06T11:30:00Z,30.2791,-87.5561,75.32,1111122 
DISL,ioos:station:DISL:PPTA:1,2013-10-06T12:00:00Z,30.2791,-87.5561,84.2,1111122 
DISL,ioos:station:DISL:PPTA:1,2013-10-06T12:30:00Z,30.2791,-87.5561,92.4,1111122 
DISL,ioos:station:DISL:PPTA:1,2013-10-06T13:00:00Z,30.2791,-87.5561,91.2,1111122 
DISL,ioos:station:DISL:PPTA:1,2013-10-06T13:30:00Z,30.2791,-87.5561,90.1,1111122 
DISL,ioos:station:DISL:PPTA:1,2013-10-06T14:00:00Z,30.2791,-87.5561,83.9,1111122 
DISL,ioos:station:DISL:PPTA:1,2013-10-06T14:30:00Z,30.2791,-87.5561,84.2,1111122 
DISL,ioos:station:DISL:PPTA:1,2013-10-06T15:00:00Z,30.2791,-87.5561,89.3,1111122 
DISL,ioos:station:DISL:PPTA:1,2013-10-06T15:30:00Z,30.2791,-87.5561,74.32,1111122 
DISL,ioos:station:DISL:PPTA:1,2013-10-06T16:00:00Z,30.2791,-87.5561,82.9,1111122 
DISL,ioos:station:DISL:PPTA:1,2013-10-06T16:30:00Z,30.2791,-87.5561,80.0,1111122 
DISL,ioos:station:DISL:PPTA:1,2013-10-06T17:00:00Z,30.2791,-87.5561,80.7,1111122 
DISL,ioos:station:DISL:PPTA:1,2013-10-06T17:30:00Z,30.2791,-87.5561,83.1,1111122 
DISL,ioos:station:DISL:PPTA:1,2013-10-06T18:00:00Z,30.2791,-87.5561,86.2,1111122 
DISL,ioos:station:DISL:PPTA:1,2013-10-06T18:30:00Z,30.2791,-87.5561,88.8,1111122 
DISL,ioos:station:DISL:PPTA:1,2013-10-06T19:00:00Z,30.2791,-87.5561,89.0,1111122 
DISL,ioos:station:DISL:PPTA:1,2013-10-06T19:30:00Z,30.2791,-87.5561,91.9,1111122 
DISL,ioos:station:DISL:PPTA:1,2013-10-06T20:00:00Z,30.2791,-87.5561,91.6,1111122 
DISL,ioos:station:DISL:PPTA:1,2013-10-06T20:30:00Z,30.2791,-87.5561,93.0,1111122 
DISL,ioos:station:DISL:PPTA:1,2013-10-06T21:00:00Z,30.2791,-87.5561,93.4,1111122 
DISL,ioos:station:DISL:PPTA:1,2013-10-06T21:30:00Z,30.2791,-87.5561,92.1,1111122 
DISL,ioos:station:DISL:PPTA:1,2013-10-06T22:00:00Z,30.2791,-87.5561,90.3,1111122 
DISL,ioos:station:DISL:PPTA:1,2013-10-06T22:30:00Z,30.2791,-87.5561,92.8,1111122 
DISL,ioos:station:DISL:PPTA:1,2013-10-06T23:00:00Z,30.2791,-87.5561,93.5,1111122 
DISL,ioos:station:DISL:PPTA:1,2013-10-06T23:30:00Z,30.2791,-87.5561,93.8,1111122 
DISL,ioos:station:DISL:PPTA:1,2013-10-07T00:00:00Z,30.2791,-87.5561,94.3,1111122 
DISL,ioos:station:DISL:PPTA:1,2013-10-07T00:30:00Z,30.2791,-87.5561,94.2,1111122 